Regional Weather Roundup
Issued by NWS

Home | Current Version | Previous Version | Text Only | Print | Product List | Glossary On
Versions: 1 2 3 4 5 6 7 8 9 10 11 12 13 14 15 16 17 18 19 20 21 22 23 24 25 26 27 28 29 30 31 32 33 34 35 36 37 38 39 40 41 42 43 44 45 46 47 48 49 50
000
ASUS43 KLSX 270507
RWRMO

WEATHER SUMMARY FOR MISSOURI
NATIONAL WEATHER SERVICE SPRINGFIELD MO
1200 AM CDT FRI MAY 27 2016

NOTE: "FAIR" INDICATES FEW OR NO CLOUDS BELOW 12,000 FEET WITH NO
       SIGNIFICANT WEATHER AND/OR OBSTRUCTIONS TO VISIBILITY.
       CURRENT SKY AND/OR WEATHER CONDITIONS ARE NOT AVAILABLE FOR
       CHILLICOTHE AND FARMINGTON.

MOZ001>031-035>038-043-044-053-054-270600-
...NORTHERN AND WESTERN MISSOURI...

CITY           SKY/WX    TMP DP  RH WIND       PRES   REMARKS
KANSAS CTY INT LGT RAIN  62  60  93 NE10      29.86F
KANSAS C DTWN  RAIN      64  64 100 CALM      29.87R FOG
LEE`S SUMMIT   LGT RAIN  62  62 100 NE6       29.88R FOG
ST JOSEPH      CLOUDY    63  60  90 E12       29.84F
CHILLICOTHE      N/A     63  62  97 VRB5      29.88F
KIRKSVILLE     RAIN      63  62  97 NE13      29.88F

$$
MOZ066>068-077>081-088>096-101>105-270600-
...SOUTHWEST MISSOURI...

CITY           SKY/WX    TMP DP  RH WIND       PRES   REMARKS
SPRINGFIELD    PTCLDY    70  62  76 S10       29.86S
JOPLIN         CLOUDY    66  60  81 CALM      29.85R

$$
MOZ032>034-039>042-045>050-055>058-069>072-270600-
...CENTRAL MISSOURI...

CITY           SKY/WX    TMP DP  RH WIND       PRES   REMARKS
COLUMBIA       CLOUDY    65  63  93 E13       29.88S
JEFFERSON CITY MOCLDY    65  63  93 E13       29.88F
ROLLA          CLOUDY    66  63  90 CALM      29.92R
SEDALIA        CLOUDY    64  63  96 MISG      29.86F
WHITEMAN AFB   CLOUDY    62  62 100 E3        29.85S
WARRENSBURG    MOCLDY    61  61 100 NE3       29.86R

$$
MOZ051-052-059>065-270600-
...EAST CENTRAL MISSOURI...

CITY           SKY/WX    TMP DP  RH WIND       PRES   REMARKS
ST LOUIS INTL  LGT RAIN  72  65  78 S7        29.94R
SPIRIT OF STL  LGT RAIN  71  67  87 VRB5      29.90R
ST CHARLES     TSTM      71  68  90 CALM      29.91R

$$
MOZ072>076-082>087-097>100-106>115-270600-
...SOUTH CENTRAL AND SOUTHEAST MISSOURI...

CITY           SKY/WX    TMP DP  RH WIND       PRES   REMARKS
CAPE GIRARDEAU CLOUDY    68  64  87 S7        29.98R
FARMINGTON     LGT RAIN  66  64  93 S10       29.96F
POPLAR BLUFF   CLOUDY    68  65  90 SE13      29.95F
WEST PLAINS    CLOUDY    68  64  87 SE12G20   29.94R

$$


USA.gov is the U.S. government's official web portal to all federal, state and local government web resources and services.